This is the latest recevied weather packets stored in our database for station/object KC5DP. If no packets are shown the sender has not sent any weather packets the latest 10 day(s).
| Time | Temp. | Humidity | Pressure | Rain* | Wind** | Luminosity | Snow |
|---|---|---|---|---|---|---|---|
| 1778089774 | 27.22° C | 89% | 1012.6 hPa | 0 mm | - | 43 W/m² | - |
| 1778089473 | 27.22° C | 87% | 1012.5 hPa | 0 mm | - | 83 W/m² | - |
| 1778089169 | 27.22° C | 86% | 1012.6 hPa | 0 mm | - | 149 W/m² | - |
| 1778088866 | 27.78° C | 86% | 1012.9 hPa | 0 mm | - | 149 W/m² | - |
| 1778088557 | 27.78° C | 86% | 1012.9 hPa | 0 mm | - | 149 W/m² | - |
| 1778088254 | 27.78° C | 85% | 1012.8 hPa | 0 mm | - | 192 W/m² | - |
| 1778087951 | 27.78° C | 85% | 1012.8 hPa | 0 mm | - | 192 W/m² | - |
| 1778087648 | 27.78° C | 85% | 1012.9 hPa | 0 mm | - | 159 W/m² | - |
| 1778087346 | 27.78° C | 86% | 1012.7 hPa | 0 mm | - | 207 W/m² | - |
| 1778087042 | 27.22° C | 86% | 1012.7 hPa | 0 mm | - | 148 W/m² | - |
| 1778086741 | 27.78° C | 86% | 1012.8 hPa | 0 mm | - | 171 W/m² | - |
| 1778086439 | 27.78° C | 85% | 1012.9 hPa | 0 mm | - | 264 W/m² | - |
| 1778086135 | 27.78° C | 85% | 1012.9 hPa | 0 mm | - | 264 W/m² | - |
| 1778085831 | 27.78° C | 84% | 1013 hPa | 0 mm | - | 158 W/m² | - |
| 1778085530 | 27.22° C | 87% | 1012.9 hPa | 0 mm | - | 312 W/m² | - |
| 1778085223 | 26.67° C | 87% | 1012.9 hPa | 0 mm | - | 218 W/m² | - |
| 1778084919 | 26.67° C | 88% | 1012.9 hPa | 0 mm | - | 185 W/m² | - |
| 1778084617 | 26.67° C | 88% | 1012.8 hPa | 0 mm | - | 148 W/m² | - |
| 1778084314 | 26.67° C | 88% | 1012.7 hPa | 0 mm | - | 86 W/m² | - |
| 1778084011 | 26.67° C | 88% | 1012.7 hPa | 0 mm | - | 112 W/m² | - |
| 1778083704 | 26.67° C | 88% | 1012.8 hPa | 0 mm | - | 91 W/m² | - |
| 1778083400 | 26.67° C | 87% | 1012.7 hPa | 0 mm | - | 90 W/m² | - |
| 1778083099 | 26.67° C | 87% | 1012.7 hPa | 0 mm | - | 121 W/m² | - |
| 1778082795 | 26.67° C | 87% | 1012.6 hPa | 0 mm | - | 195 W/m² | - |
| 1778081667 | 26.11° C | 90% | 1012.5 hPa | 0 mm | - | 197 W/m² | - |
* Rain latest hour (hover to see other rain measurements)
** Current wind speed in m/s (hover to see current wind gust speed)